GFSNGP_sfc_thetae_159.txt.gz
Theta_e
292 294 294 293 293 295 296 296 292 296 296 301 304 307 314 315 315 314 314 315 316 315 316 317 317 317 319 322 322 320 318 316 314 312 311 309 308 307 306 305 305 305 305 304
296 294 294 293 295 296 297 298 298 300 300 308 314 313 313 313 313 312 312 313 314 314 315 314 315 316 316 316 316 315 313 311 308 307 305 304 303 303 304 303 303 303 303 303
290 296 294 288 292 294 297 302 301 293 302 310 309 309 308 310 313 311 310 310 311 311 312 313 313 313 312 311 308 306 304 304 303 303 303 302 303 302 301 300 299 299 299 300
291 294 284 294 301 299 297 304 304 307 308 310 309 309 308 307 301 300 301 300 302 302 303 307 309 307 305 304 303 302 301 301 302 302 301 301 300 298 296 296 296 296 297 299
288 288 295 299 303 300 301 301 307 306 306 307 307 306 303 304 301 298 297 298 297 298 300 300 302 302 302 300 301 301 301 300 301 300 299 298 296 294 294 294 295 296 297 299
290 287 286 297 305 309 309 296 306 305 305 306 306 298 299 301 301 299 299 299 298 299 299 302 302 301 299 299 299 299 300 300 299 298 297 295 294 293 295 296 297 299 299 299
290 288 292 302 307 310 293 296 307 306 306 306 304 303 303 302 300 300 299 299 301 301 300 301 300 298 296 296 296 299 300 298 297 295 294 294 293 295 296 297 297 296 294 297
293 288 286 309 307 301 304 307 310 309 308 304 304 303 302 301 299 299 298 299 299 298 298 300 299 296 294 293 295 297 296 295 293 291 294 295 292 294 295 293 290 290 289 290
296 296 305 309 309 310 309 308 308 308 307 305 303 302 301 300 301 300 299 299 298 296 295 295 295 294 291 291 293 293 292 291 291 291 291 291 290 290 290 288 287 287 287 287
300 301 302 309 312 312 311 308 311 308 307 306 303 302 301 300 299 299 299 297 297 295 293 291 292 292 291 291 291 291 289 289 289 289 289 289 290 290 289 288 285 286 286 285
300 305 305 307 312 314 314 312 309 308 306 304 304 302 301 299 298 297 297 297 296 294 292 291 291 290 291 292 292 291 290 290 289 292 291 291 292 291 291 290 289 288 287 287
296 306 303 305 313 314 310 309 309 307 305 305 302 300 299 297 297 296 295 295 294 293 291 290 289 290 291 292 292 290 289 290 290 290 291 291 291 291 293 292 291 290 290 288
305 311 310 310 314 314 311 309 309 306 304 302 300 298 297 296 296 298 296 295 293 292 290 289 288 289 290 291 291 291 287 290 290 290 289 289 290 289 288 291 291 291 290 289
311 312 309 310 306 309 308 307 305 303 301 299 298 298 297 296 296 294 293 293 293 291 290 288 289 289 291 291 291 288 286 292 289 289 289 289 289 288 288 288 287 288 290 290
306 312 307 306 305 303 302 301 298 297 297 296 297 296 295 293 292 292 293 292 291 289 288 288 287 288 290 291 288 287 287 287 287 286 286 287 286 287 288 287 287 287 288 287
303 306 304 301 300 300 298 297 295 295 295 296 296 295 294 294 292 290 289 289 286 285 287 286 286 288 290 288 287 287 288 290 289 286 286 285 285 284 283 285 286 286 287 283
300 298 298 297 297 296 296 296 296 296 296 295 294 294 293 291 289 288 287 287 287 285 285 286 286 289 289 288 287 288 288 288 286 287 286 286 285 284 284 283 282 283 283 284
299 299 299 298 296 295 296 297 297 296 295 295 295 294 292 290 287 286 285 286 285 284 285 284 285 286 288 289 286 287 288 288 287 286 286 286 284 284 283 283 282 282 282 285
298 297 297 297 297 296 296 295 295 296 296 296 295 293 292 290 288 287 286 285 283 281 284 284 288 288 287 288 288 288 288 288 286 285 286 285 284 283 283 282 282 281 282 283
298 298 299 298 298 297 296 296 296 295 295 294 293 291 290 291 290 287 285 282 280 278 284 287 289 288 286 287 287 287 288 287 286 285 285 284 283 282 282 283 282 282 282 283
299 298 297 297 296 298 296 295 294 294 294 294 292 291 289 288 287 285 283 281 282 285 287 287 283 280 285 283 285 287 287 286 285 284 284 283 282 282 281 281 281 281 282 282
298 296 295 294 294 294 295 294 294 294 294 293 293 293 291 288 287 286 285 283 282 284 284 282 281 282 281 283 287 287 286 286 285 283 283 282 281 280 280 280 280 281 283 281
295 295 295 295 293 293 294 294 294 294 293 293 293 292 289 287 286 284 283 286 284 285 282 280 282 283 283 285 287 286 286 285 284 282 282 282 281 280 280 281 279 281 281 281
296 296 295 295 295 294 292 294 293 293 293 294 293 293 290 287 286 285 285 284 284 282 280 280 283 284 284 286 286 285 284 283 282 281 281 282 280 280 279 278 279 280 281 281
296 296 295 294 293 293 293 293 293 293 293 292 292 292 291 289 285 283 283 283 283 284 281 283 285 286 286 285 285 283 282 282 280 280 279 281 278 279 280 280 282 282 280 281
296 295 295 294 294 293 293 292 290 291 291 290 291 291 290 290 290 288 286 286 284 284 281 280 279 282 283 284 285 283 282 281 281 283 277 282 282 282 282 282 282 282 281 281
296 295 295 294 295 294 294 293 292 291 292 292 290 291 290 290 289 288 286 284 284 282 281 281 285 282 281 282 283 282 280 280 280 280 277 282 282 281 281 280 282 282 282 281

GFSNGP_sfc_thetae_162.txt.gz
Theta_e
296 292 293 292 292 295 293 294 289 293 294 303 308 308 310 312 313 313 313 314 314 314 316 318 320 321 321 320 320 319 316 313 308 306 304 303 303 303 303 303 303 303 303 302
292 296 292 290 292 293 297 297 296 299 299 309 311 311 311 311 311 310 311 312 313 314 315 315 316 318 318 317 314 310 307 303 303 302 303 302 302 301 300 299 299 299 299 300
287 296 295 286 291 292 297 299 299 293 300 307 306 306 307 308 309 308 308 309 310 310 310 309 309 307 305 304 304 303 302 302 302 302 301 300 299 298 296 295 295 296 296 297
288 291 282 292 301 298 299 302 302 305 306 306 303 302 301 299 299 298 300 300 301 301 301 302 302 302 303 302 301 301 300 301 301 300 298 297 296 294 294 293 293 293 294 295
285 286 292 297 301 300 298 300 305 305 305 304 302 301 297 299 299 297 297 297 297 299 298 298 298 299 300 300 300 301 299 299 299 299 296 295 293 293 292 292 293 297 298 298
289 285 282 295 303 308 305 296 309 308 304 303 304 297 296 298 298 297 297 298 298 297 297 297 298 299 298 298 299 298 298 298 298 297 295 294 292 292 292 295 297 296 293 295
289 286 291 300 304 308 292 293 307 308 307 304 301 301 299 299 298 297 297 299 300 298 296 296 297 297 296 296 296 298 297 296 294 292 292 292 291 291 290 288 288 288 288 289
291 287 284 305 304 298 301 307 308 307 307 301 300 299 298 299 298 297 297 296 297 296 295 296 296 295 293 293 295 295 294 293 292 289 291 291 289 288 287 286 286 286 285 286
293 293 303 305 305 307 307 307 308 307 303 301 299 298 299 298 297 297 296 294 293 291 291 292 293 293 291 292 293 292 289 288 288 289 289 289 288 287 286 285 284 284 284 284
297 300 302 307 310 309 310 306 307 306 304 302 300 299 299 297 296 296 294 292 291 290 288 288 290 290 290 290 291 289 287 287 287 288 287 288 288 288 285 285 285 285 286 283
299 302 304 307 307 312 310 307 306 305 304 303 301 300 299 298 297 295 293 292 291 289 288 288 290 290 291 292 292 289 288 288 289 289 289 289 291 288 288 288 289 287 287 286
298 304 302 302 309 314 307 306 305 303 303 303 301 298 299 297 295 294 292 291 289 288 288 288 290 290 291 292 290 288 289 290 288 289 288 288 286 286 291 290 290 290 290 288
303 308 309 309 310 314 308 305 305 304 303 298 296 296 295 293 293 294 292 290 288 288 288 288 289 289 290 289 288 286 285 285 285 286 285 285 287 288 286 288 291 291 290 289
305 309 306 308 307 311 308 306 304 299 297 296 296 296 295 294 294 292 290 289 288 287 287 287 288 288 288 288 286 285 284 290 282 284 284 284 285 287 288 286 286 287 289 288
302 308 306 307 304 302 300 298 296 294 295 294 295 293 293 291 290 289 289 289 288 286 286 287 286 286 287 287 286 285 285 285 285 284 283 285 283 283 283 284 285 283 284 284
300 305 303 300 298 298 297 295 293 293 293 293 292 292 291 290 289 288 287 286 283 282 285 286 285 285 287 286 285 284 286 288 288 284 284 283 283 282 281 281 281 281 281 280
300 297 297 296 295 295 294 294 295 293 293 291 290 291 290 288 286 285 285 285 284 284 286 285 281 285 288 287 285 285 285 285 284 284 283 283 282 281 281 280 280 279 280 282
300 299 298 297 295 295 295 295 294 293 292 292 292 291 289 286 284 284 284 284 284 284 285 282 283 284 286 287 285 284 285 284 285 284 284 283 281 281 281 280 280 279 279 281
297 296 296 296 296 295 295 294 294 294 294 293 292 289 288 286 285 284 284 283 282 278 276 284 286 287 285 287 286 285 285 285 284 283 284 283 281 280 280 279 279 279 279 280
297 297 297 297 297 296 295 296 295 294 294 293 291 289 287 286 286 285 284 281 280 278 281 284 283 283 283 285 287 285 285 285 284 283 282 280 280 279 279 280 280 279 279 280
297 297 297 297 296 297 296 296 294 293 293 293 291 289 288 286 286 284 282 281 282 286 284 285 280 277 282 283 285 285 285 284 282 281 281 279 279 279 278 278 279 279 279 279
297 296 296 296 296 294 294 294 294 293 292 291 290 288 286 284 285 284 284 282 285 284 280 277 277 281 280 284 285 284 284 283 281 281 280 279 278 278 278 278 278 279 278 278
295 295 294 293 292 292 294 294 293 293 292 292 290 288 286 285 285 283 282 285 280 282 278 278 282 282 283 285 285 284 283 282 280 280 278 278 278 278 277 276 277 278 278 278
294 294 293 293 293 292 291 292 293 293 293 293 291 289 287 285 283 281 284 283 282 280 279 280 283 284 284 283 283 282 281 280 279 278 278 279 277 277 276 276 277 278 278 278
294 294 293 293 292 291 291 291 292 291 291 290 290 289 287 286 284 281 281 281 283 282 280 282 284 284 283 282 281 280 279 278 277 276 275 275 275 281 281 281 280 276 279 279
293 292 292 292 292 292 291 291 290 290 290 288 288 288 286 285 286 284 282 283 281 281 278 279 280 281 281 280 280 280 279 279 278 275 281 281 281 281 281 281 281 280 280 281
293 292 291 291 292 291 291 291 290 289 290 289 287 287 288 288 286 285 283 281 279 277 277 277 276 279 279 279 279 278 278 278 278 276 281 281 280 280 280 280 281 281 280 280

GFSNGP_sfc_thetae_165.txt.gz
Theta_e
296 295 294 292 292 295 293 293 290 292 293 304 306 308 309 311 313 315 317 318 319 319 320 320 320 319 320 319 319 318 314 309 305 304 304 303 303 302 302 302 301 301 301 301
291 295 292 290 293 296 296 296 295 297 299 309 310 310 310 309 312 312 313 313 315 318 319 318 318 319 319 317 313 307 303 302 304 303 302 301 299 299 298 298 298 299 298 299
286 294 290 284 289 292 295 297 297 292 301 306 303 302 300 306 307 309 309 309 308 308 310 313 312 310 306 304 304 303 302 303 302 301 299 298 297 297 295 295 295 294 295 295
286 289 281 289 301 296 297 298 301 303 304 304 301 300 300 302 302 301 300 299 299 299 299 301 304 303 303 303 302 301 300 300 300 298 297 296 295 294 293 293 293 293 294 295
284 285 290 295 299 297 295 296 305 305 305 304 301 302 298 300 300 300 297 297 297 298 298 299 300 303 302 301 302 299 298 297 297 297 295 296 294 292 292 292 292 292 295 295
286 284 282 292 301 306 304 293 307 306 303 301 303 299 298 297 298 298 298 298 297 298 297 298 298 299 298 297 298 297 297 296 297 295 295 292 291 290 289 288 288 290 289 290
288 286 289 299 302 307 290 291 307 305 303 302 301 300 298 298 297 298 298 297 297 297 295 296 298 298 296 295 294 295 295 294 294 293 291 289 287 286 286 286 286 285 286 286
290 287 285 303 302 297 299 306 308 307 306 304 298 297 296 296 296 296 296 296 295 294 294 296 297 295 293 292 293 294 294 293 291 289 291 289 286 285 285 285 284 283 283 283
294 293 301 304 303 307 307 307 309 303 301 299 297 297 296 296 295 293 292 291 291 290 289 292 294 294 291 292 293 292 290 288 287 288 288 287 285 284 284 284 283 282 282 281
297 300 302 305 307 308 307 306 304 303 302 300 298 298 297 296 292 291 290 289 289 288 287 287 289 291 291 291 291 288 286 286 287 287 286 286 287 285 284 283 282 282 282 281
298 303 303 305 307 310 306 305 304 304 302 300 300 298 297 294 292 290 289 288 288 287 287 287 288 289 289 290 289 287 286 286 286 286 286 286 286 285 285 286 287 282 282 282
295 303 303 301 307 310 304 303 303 302 301 302 300 296 295 292 291 290 288 288 287 287 288 289 290 290 290 289 288 287 286 286 285 285 285 286 286 285 290 290 290 290 289 287
300 304 304 308 309 310 305 304 304 303 302 300 299 297 294 291 291 291 288 287 287 287 288 289 288 287 287 287 286 285 283 283 284 284 283 283 283 283 282 286 291 289 288 288
304 302 305 307 307 306 305 305 303 300 298 298 296 294 293 291 290 289 287 287 287 286 286 287 287 285 286 286 285 284 283 288 282 282 282 282 282 282 283 282 281 282 286 286
299 301 305 306 303 300 298 297 295 294 295 294 294 292 291 289 288 287 287 287 286 286 286 286 285 284 286 286 285 284 284 284 283 282 282 283 281 281 281 281 280 280 280 283
297 303 304 302 299 298 296 295 293 292 292 292 291 290 289 288 287 286 286 286 283 282 284 283 283 284 286 285 284 283 284 288 285 283 282 282 281 280 280 279 279 279 279 279
297 299 299 298 296 296 295 295 293 292 290 289 288 288 287 286 285 284 284 283 283 282 282 281 279 284 287 286 283 282 283 283 282 282 282 281 280 280 279 279 278 278 278 280
300 299 298 297 295 294 293 293 292 291 290 289 289 288 287 285 283 282 283 283 283 282 281 282 284 285 285 285 284 284 283 283 283 282 281 281 280 280 279 279 278 278 278 280
297 296 297 296 295 294 293 292 292 292 291 291 289 286 286 285 284 283 283 282 281 280 278 285 288 284 283 286 284 283 283 283 282 281 281 281 280 279 278 278 278 277 278 279
295 296 296 295 296 295 293 294 293 292 291 290 288 286 284 284 284 283 282 280 279 277 284 284 283 283 283 286 286 284 284 283 281 280 280 279 278 278 278 279 278 278 278 278
296 296 295 295 295 295 295 295 294 292 291 290 288 286 285 285 284 283 282 281 282 285 285 284 281 278 283 283 284 283 283 281 281 280 279 278 277 277 277 277 278 278 278 278
297 296 296 296 295 294 295 294 293 293 291 290 288 287 285 284 283 283 283 282 279 282 280 278 277 280 282 283 283 282 281 281 280 279 278 278 277 277 277 277 277 278 277 276
297 297 296 294 293 293 293 293 292 291 290 289 287 286 285 284 284 283 282 283 280 280 278 278 280 281 283 282 282 281 280 280 279 278 277 277 277 276 276 275 275 277 276 276
293 293 292 293 293 292 290 291 292 292 291 290 288 287 285 283 282 281 283 282 281 280 278 278 282 283 282 282 281 280 279 278 277 276 277 277 276 276 275 275 276 276 277 277
293 292 292 291 290 290 291 291 291 290 289 288 288 287 286 285 283 279 280 281 282 281 280 282 283 283 282 281 280 278 277 276 275 274 273 273 279 280 280 281 277 274 279 279
292 292 292 292 291 291 291 291 289 289 289 287 286 285 285 285 283 282 282 281 280 280 278 278 278 280 279 279 279 278 277 277 277 276 281 281 280 280 277 279 276 280 280 279
292 291 291 291 291 291 291 290 289 288 288 287 285 284 285 285 284 282 281 280 278 277 277 276 276 278 277 277 278 278 277 277 276 278 281 280 280 280 280 280 280 280 280 277

GFSNGP_sfc_thetae_168.txt.gz
Theta_e
292 295 291 289 289 292 290 289 286 289 292 300 304 308 309 312 310 312 315 319 321 322 322 321 320 320 320 319 319 318 314 309 306 304 304 304 303 302 302 302 302 303 303 302
292 296 293 290 292 292 292 293 295 295 295 306 307 306 305 309 313 314 315 317 319 319 319 318 318 318 319 314 308 306 305 303 303 302 301 300 300 299 299 299 299 300 299 300
286 294 289 284 289 292 294 296 296 293 298 304 303 301 301 302 303 307 308 308 311 315 316 317 316 309 305 305 306 304 303 302 301 300 299 298 299 298 297 297 297 297 297 298
287 289 281 288 296 295 295 298 300 303 304 304 301 300 301 302 300 299 299 299 300 302 303 306 308 307 306 306 304 302 300 299 299 298 297 297 297 296 296 296 296 296 295 293
284 283 289 294 298 295 293 294 303 303 304 303 302 301 298 299 299 298 299 299 299 302 303 303 304 304 303 301 300 299 297 297 297 297 296 295 294 293 293 293 292 293 292 291
287 282 281 291 300 304 302 290 305 305 303 302 301 296 294 298 297 297 298 299 300 300 299 299 299 300 299 298 298 297 297 296 297 296 295 291 290 290 290 290 289 290 289 289
287 283 287 298 302 305 289 289 304 306 305 303 300 299 296 297 296 297 296 296 297 297 296 296 297 297 295 295 294 295 296 295 294 292 291 289 289 288 288 287 287 287 287 288
289 283 282 302 302 296 298 303 306 308 304 297 296 296 297 296 295 295 295 295 296 295 295 296 297 295 293 292 293 294 293 292 291 290 290 289 287 287 287 287 286 286 286 287
294 292 301 306 304 307 306 303 306 306 299 298 297 296 296 295 294 294 293 292 293 292 292 294 294 294 292 292 293 292 291 290 290 289 288 288 287 287 286 286 286 286 285 285
297 300 302 305 306 309 305 305 306 302 300 300 297 297 295 292 291 291 291 289 290 289 288 289 292 292 292 292 292 291 289 288 288 288 288 288 288 287 287 286 286 285 285 285
297 302 302 306 306 306 303 303 302 302 302 299 297 296 294 291 290 289 288 288 289 288 288 288 289 289 290 290 290 289 288 288 288 288 288 287 287 288 288 289 288 286 286 286
292 301 300 301 307 308 304 303 303 301 299 300 299 294 293 290 289 288 287 288 288 288 289 289 289 289 289 289 289 288 287 287 287 287 287 287 287 287 290 290 289 288 288 288
298 301 301 303 310 309 304 303 303 302 301 298 296 294 292 289 288 289 288 287 287 288 290 289 288 287 288 288 288 286 285 286 286 286 286 286 286 286 285 287 288 288 287 287
303 299 300 307 305 305 305 304 304 302 299 297 294 293 291 289 289 287 286 287 288 288 287 287 287 286 287 288 287 286 287 287 285 285 285 285 285 284 285 284 283 283 285 286
299 299 298 305 302 299 300 298 297 295 294 293 293 291 290 288 287 286 287 287 287 286 286 286 286 285 287 288 287 286 286 286 285 285 285 285 284 284 284 283 282 282 283 284
296 298 305 299 297 297 297 295 294 293 293 292 290 290 289 288 286 286 286 286 285 284 285 285 285 286 287 287 287 287 288 287 286 286 285 284 284 283 283 282 282 282 282 282
293 297 300 296 295 295 295 295 294 292 291 290 288 288 287 286 285 284 284 285 285 284 284 284 284 287 288 287 286 286 287 286 282 285 284 284 283 283 282 282 281 281 281 282
295 298 301 298 295 293 293 292 292 291 289 289 288 287 286 286 283 283 284 284 283 283 284 285 286 287 287 287 286 286 286 285 284 284 284 283 283 283 282 282 281 281 281 282
295 295 295 295 295 293 292 291 290 290 290 289 288 286 285 284 283 283 284 284 283 282 284 286 287 286 286 287 286 286 286 284 284 283 283 281 282 282 281 281 281 281 281 281
295 295 294 294 294 293 291 292 291 290 289 288 287 285 284 283 284 284 285 283 284 285 284 285 285 286 287 287 286 286 285 284 283 283 282 282 282 281 281 280 281 281 281 280
295 295 294 293 293 293 292 292 291 289 289 288 287 285 284 284 284 284 284 283 285 285 283 285 285 285 285 285 285 285 284 284 283 282 282 281 281 281 281 281 281 280 280 280
295 294 294 294 294 293 293 293 292 290 289 287 287 285 284 283 284 284 285 284 284 281 282 283 284 282 284 282 284 284 284 283 282 282 281 281 281 280 280 280 280 280 280 280
296 296 295 294 293 293 293 293 292 290 288 287 286 285 284 284 285 284 283 285 284 282 284 284 282 281 282 285 284 283 283 282 282 281 281 280 280 280 280 279 280 280 280 279
295 294 293 294 293 292 290 290 290 290 289 289 287 286 285 284 284 284 285 282 281 282 283 283 283 282 282 283 283 282 282 281 281 280 280 279 280 280 280 280 280 280 280 280
293 292 292 291 290 290 290 291 289 288 288 287 286 287 287 286 285 282 283 284 282 283 284 282 282 282 283 283 282 281 281 280 280 280 280 280 281 281 281 281 280 280 280 280
292 291 291 292 291 291 291 290 288 288 287 286 285 286 285 284 284 284 283 283 283 281 282 283 283 283 282 282 281 281 280 281 281 281 282 281 282 281 281 280 280 280 280 279
292 291 291 290 291 291 291 290 288 287 287 286 284 285 284 284 283 283 282 282 281 280 280 280 280 281 281 281 281 281 281 281 280 282 281 281 281 281 281 280 280 280 279 279

GFSNGP_sfc_thetae_171.txt.gz
Theta_e
296 297 295 295 295 296 294 294 292 294 296 304 307 309 310 314 315 313 316 319 324 327 329 325 324 320 319 317 314 311 308 307 307 307 306 306 306 306 306 308 309 309 308 306
293 297 297 293 295 296 296 297 297 298 298 308 309 310 308 307 312 316 318 320 323 323 321 320 319 313 308 307 307 305 304 302 303 302 302 303 303 304 306 306 305 306 306 305
289 295 294 290 294 295 297 299 299 295 302 308 303 304 303 303 302 302 303 306 316 319 318 318 310 308 308 308 308 306 303 302 301 301 301 301 302 302 302 302 303 302 303 302
292 293 285 295 303 299 298 300 303 306 308 309 304 301 301 303 301 299 299 301 303 305 308 309 310 312 316 315 310 305 302 301 301 300 299 299 299 298 300 302 302 300 299 299
290 290 293 297 301 301 297 296 305 306 307 305 303 301 297 299 300 299 299 301 302 304 305 306 306 306 305 303 304 300 299 299 299 299 298 297 297 299 300 300 300 299 298 298
292 288 286 296 303 308 306 294 307 309 308 304 307 303 298 298 299 298 299 300 299 300 300 300 301 303 301 299 299 297 297 297 297 295 294 294 296 297 297 297 297 297 296 297
290 290 293 302 305 308 293 295 308 310 310 307 305 305 300 298 297 297 298 299 299 299 296 297 299 298 295 295 294 296 295 295 293 293 293 294 295 295 295 296 296 296 295 296
293 291 289 305 305 299 305 307 310 311 311 306 299 298 297 297 296 296 297 297 297 296 296 298 298 297 296 294 296 295 294 294 293 295 294 295 295 295 296 296 295 295 295 295
296 295 304 306 305 309 310 307 309 311 305 301 299 297 296 296 295 296 295 295 296 295 295 296 296 295 292 293 294 293 292 291 292 293 293 295 295 294 294 295 294 294 294 293
297 300 301 306 306 309 309 308 312 307 304 303 299 298 297 294 293 293 294 293 294 295 295 294 295 294 294 294 294 293 291 291 294 295 295 295 295 294 293 293 293 293 292 292
298 300 301 306 304 307 306 306 306 306 304 303 302 297 296 293 292 292 292 295 297 297 296 295 297 296 297 297 298 296 295 294 295 295 295 294 294 294 293 292 291 291 291 291
293 299 299 299 304 307 305 304 305 305 304 304 303 297 295 293 293 293 294 296 296 296 295 295 295 295 296 297 297 296 295 295 294 294 294 294 293 291 289 289 288 287 288 289
300 304 302 302 308 310 306 305 305 305 304 301 300 297 295 294 296 294 295 295 295 294 294 295 295 294 295 296 296 296 295 294 293 293 293 293 292 292 290 289 288 287 287 286
304 303 300 303 302 307 306 304 304 303 301 301 299 297 297 295 294 294 293 294 294 294 294 294 294 293 295 295 295 294 294 291 294 293 292 292 291 291 290 289 288 289 288 287
302 303 303 306 305 305 305 301 299 297 297 296 297 296 296 294 292 292 293 293 294 293 293 293 293 293 295 296 295 295 294 293 293 293 292 291 291 290 290 289 289 289 290 289
302 302 304 301 300 300 300 299 297 295 296 296 294 295 293 292 292 292 292 293 292 291 292 292 292 294 295 296 296 296 294 290 291 292 291 291 290 289 289 288 288 288 288 287
298 299 300 296 297 296 297 298 297 296 294 293 292 290 289 289 289 290 291 292 292 292 293 292 292 294 295 296 297 296 294 293 287 292 291 290 290 288 288 288 288 288 287 285
301 301 301 300 296 296 295 295 295 293 291 290 290 289 288 288 287 288 290 291 290 289 288 287 290 294 294 295 296 295 294 293 292 291 290 289 289 289 288 288 287 287 287 286
301 301 300 296 295 294 293 292 291 291 290 290 290 289 289 288 288 288 290 290 287 286 286 289 289 292 295 293 293 294 293 291 291 290 289 286 288 288 288 288 287 287 287 286
294 295 295 294 294 292 291 291 291 291 291 290 289 288 286 286 287 288 290 290 291 289 286 291 293 295 294 291 290 293 292 291 290 289 289 288 288 287 287 285 287 286 286 286
294 294 293 293 292 292 291 291 290 290 290 291 288 287 286 286 288 290 289 289 290 289 290 290 293 294 293 291 292 292 291 291 290 289 288 288 287 287 287 287 286 286 286 286
294 293 292 292 291 291 291 291 291 290 290 288 288 287 287 288 290 290 291 289 290 284 292 293 293 288 290 286 292 292 291 290 289 288 288 288 287 287 286 286 286 286 286 286
295 294 294 293 292 292 292 291 290 289 288 287 286 287 288 289 290 289 286 289 291 287 292 291 285 284 284 293 292 291 290 289 288 288 287 287 287 287 286 286 286 286 286 286
295 295 294 294 294 292 289 289 290 289 288 288 289 290 290 289 289 291 289 286 284 288 290 287 286 284 286 291 290 290 289 289 288 287 286 285 287 286 286 286 286 286 286 285
294 293 293 292 291 291 291 291 290 289 289 288 288 290 290 291 290 289 290 290 284 289 289 283 284 285 290 290 289 288 288 288 287 287 287 286 286 285 283 284 284 283 285 285
295 293 294 295 294 293 292 292 290 290 288 287 288 289 289 289 289 289 290 288 290 288 289 289 289 290 289 288 288 287 287 286 286 286 284 284 283 283 283 283 282 283 284 285
295 293 294 293 294 293 293 292 290 289 288 288 287 288 288 288 288 289 287 289 289 289 289 289 288 288 289 288 287 287 286 286 285 285 283 283 283 283 283 282 282 282 282 283

GFSNGP_sfc_thetae_174.txt.gz
Theta_e
299 298 297 297 297 298 297 298 295 297 298 307 311 312 315 319 321 317 319 325 329 333 331 326 322 319 316 313 312 313 310 308 308 307 307 307 307 308 308 308 309 309 310 310
295 298 298 295 297 298 298 298 298 300 302 312 313 314 314 315 315 317 319 323 329 329 321 318 314 313 312 314 312 312 307 306 308 310 308 308 306 306 306 308 309 309 308 309
290 297 297 293 297 298 298 300 300 298 307 312 310 310 307 308 309 306 307 313 321 320 313 311 311 313 318 316 313 312 311 310 309 307 308 307 304 304 305 305 306 306 306 306
295 297 287 300 306 302 300 301 303 306 309 312 308 303 302 304 303 303 305 307 308 309 310 312 313 318 318 317 314 311 309 308 307 305 304 302 302 301 303 305 304 304 305 306
293 293 296 299 304 303 301 301 309 306 311 308 305 303 298 300 301 302 304 305 307 307 306 309 312 314 312 310 308 305 304 303 306 306 302 302 301 302 302 303 303 302 303 303
295 289 287 298 307 311 309 298 311 312 311 308 310 306 298 299 299 300 300 302 303 304 304 304 308 309 305 302 301 301 300 301 305 302 299 297 299 299 301 303 302 302 302 303
291 292 297 304 309 312 296 299 309 311 313 313 310 311 300 299 299 300 300 299 301 301 299 302 308 308 302 299 297 298 298 299 298 297 297 297 297 300 302 302 302 302 302 303
296 293 287 307 307 300 303 309 309 311 313 308 307 302 298 297 297 298 298 298 299 298 298 300 301 301 297 295 297 297 297 296 295 296 297 298 299 301 303 302 302 302 302 302
296 295 305 308 304 306 309 307 311 311 310 309 305 300 298 297 297 297 297 297 298 298 297 297 298 298 296 294 294 294 293 294 296 297 301 301 300 300 300 302 301 301 300 300
298 300 301 305 308 307 309 308 312 312 312 309 305 300 298 295 295 296 296 295 298 299 298 298 300 297 295 295 296 295 293 294 297 297 300 300 299 300 298 299 298 298 297 296
299 299 302 303 305 306 309 308 310 310 307 304 303 301 299 297 297 297 299 300 301 302 301 300 301 301 301 301 302 299 295 297 298 298 298 297 296 296 294 292 292 294 295 295
295 302 301 304 305 308 306 305 306 307 306 305 304 302 298 296 296 297 300 301 304 305 304 303 303 303 304 304 304 303 302 301 301 300 299 298 295 292 288 288 288 288 288 289
301 306 306 305 306 308 306 306 307 307 308 306 303 299 297 295 297 300 303 303 303 303 303 302 301 301 303 303 303 302 301 300 299 299 299 298 298 297 293 290 288 288 287 287
307 308 304 304 302 308 307 306 307 307 307 305 300 298 298 297 299 302 302 302 302 301 301 301 300 300 302 302 301 301 299 294 299 297 297 297 296 296 296 295 294 294 287 288
305 308 307 307 309 308 306 304 302 303 304 300 300 298 299 299 300 301 301 301 301 301 300 300 298 298 300 300 299 298 298 298 298 297 297 295 296 295 295 295 295 294 295 291
305 306 306 306 306 305 302 301 300 299 300 298 297 299 301 302 300 299 300 300 299 299 298 298 298 299 300 301 300 299 297 292 295 296 296 296 295 295 294 294 294 293 291 291
301 301 303 303 303 301 303 301 300 299 298 297 298 300 300 298 298 298 299 300 299 298 299 299 298 300 301 301 300 298 297 296 289 296 295 295 294 294 294 294 293 292 290 289
304 305 306 306 304 299 299 299 298 297 297 297 296 297 294 293 293 295 297 298 298 296 294 294 299 300 300 301 301 299 298 297 296 295 295 294 294 294 294 293 293 292 292 290
301 303 304 305 302 298 297 296 295 294 293 292 293 292 291 291 292 293 294 293 292 290 289 295 290 298 301 296 298 298 297 296 295 294 293 289 293 293 293 293 292 292 292 292
297 296 296 295 296 294 292 292 292 291 291 291 290 289 289 290 291 292 294 294 297 293 290 297 300 299 298 295 293 297 296 295 294 294 294 293 293 292 290 288 292 292 292 292
295 295 294 293 292 293 293 293 292 290 290 290 289 288 288 290 292 293 292 292 295 295 297 295 299 299 297 294 296 296 296 295 294 293 293 292 292 292 292 292 291 291 291 291
295 293 292 291 291 290 292 292 292 291 291 290 289 289 289 291 292 295 297 296 295 286 298 298 299 291 294 288 296 296 295 294 294 294 293 293 292 292 292 291 291 291 291 291
294 293 292 290 289 290 291 292 292 292 291 291 291 292 292 294 296 294 293 295 297 292 299 297 287 285 285 297 296 295 294 293 293 293 293 293 292 292 292 291 291 291 291 290
294 294 292 292 290 289 286 287 289 290 291 292 293 294 293 293 294 296 295 289 286 291 293 291 288 285 287 295 295 294 294 293 293 293 291 287 292 292 291 291 291 291 291 290
293 293 292 289 288 287 288 289 289 289 290 291 292 293 294 295 293 294 295 293 286 292 292 284 285 286 295 294 293 293 293 293 293 292 292 292 291 290 290 290 289 290 290 290
293 292 292 292 291 291 291 291 290 290 290 290 291 293 294 294 294 294 294 292 294 290 293 294 295 295 293 292 292 292 292 290 291 290 289 288 288 289 289 289 288 289 289 289
297 295 297 295 295 295 295 294 291 289 289 289 289 290 291 292 292 293 291 294 295 294 293 292 292 292 294 293 292 292 291 291 288 289 286 286 285 286 286 286 287 287 288 287